User: anonymous   Login
Location: Wien
(48.2082°N, 16.3738°E)
Time: 03:56:26
(UTC+01:00)
Language:

Envisat - Orbit

View from above orbital plane
View from above orbital plane
View from above satellite
View from above satellite

Ground track
Ground track

The orbit data is extracted from the following two-line orbital elements,

1 27386U 02009A   24057.87000109  .00000262  00000-0  99589-4 0  9994
2 27386  98.2686  22.9165 0001356  91.1801 301.4016 14.38509479152572
Epoch (UTC): 26 February 2024 20:52:48
Eccentricity: 0.0001356
inclination: 98.2686°
perigee height: 762 km
apogee height: 764 km
right ascension of ascending node: 22.9165°
argument of perigee: 91.1801°
revolutions per day: 14.38509479
mean anomaly at epoch: 301.4016°
orbit number at epoch: 15257

The dashed part of the orbit path shows where the satellite is in the earth's shadow,  

DLR